Time,TemperatureF,DewpointF,PressureIn,WindDirection,WindDirectionDegrees,WindSpeedMPH,WindSpeedGustMPH,Humidity,HourlyPrecipIn,Conditions,Clouds,dailyrainin,SoftwareType,DateUTC
2013-05-18 00:02:00,62.6,43.2,29.86,SW,224,5.0,6.0,49,0.00,,CLR,0.00,VWS V14.01,2013-05-18 07:02:00,
2013-05-18 00:07:00,62.3,41.8,29.86,WSW,246,2.0,8.0,47,0.00,,CLR,0.00,VWS V14.01,2013-05-18 07:07:00,
2013-05-18 00:12:00,62.3,40.7,29.86,SW,230,3.0,15.0,45,0.00,,CLR,0.00,VWS V14.01,2013-05-18 07:12:00,
2013-05-18 00:17:00,62.6,40.4,29.86,West,264,10.0,18.0,44,0.00,,CLR,0.00,VWS V14.01,2013-05-18 07:17:00,
2013-05-18 00:22:00,63.0,40.8,29.85,SW,231,4.0,21.0,44,0.00,,CLR,0.00,VWS V14.01,2013-05-18 07:22:00,
2013-05-18 00:27:00,63.0,40.8,29.85,West,266,6.0,18.0,44,0.00,,CLR,0.00,VWS V14.01,2013-05-18 07:27:00,
2013-05-18 00:32:00,62.9,39.5,29.85,West,269,6.0,20.0,42,0.00,,CLR,0.00,VWS V14.01,2013-05-18 07:32:00,
2013-05-18 00:37:00,62.8,40.0,29.85,West,260,1.0,15.0,43,0.00,,CLR,0.00,VWS V14.01,2013-05-18 07:37:00,
2013-05-18 00:42:00,62.7,38.0,29.86,WNW,300,22.0,22.0,40,0.00,,CLR,0.00,VWS V14.01,2013-05-18 07:42:00,
2013-05-18 00:48:00,62.8,38.1,29.86,WSW,253,7.0,14.0,40,0.00,,CLR,0.00,VWS V14.01,2013-05-18 07:48:00,
2013-05-18 00:53:00,62.9,37.6,29.86,WSW,254,10.0,18.0,39,0.00,,CLR,0.00,VWS V14.01,2013-05-18 07:53:00,
2013-05-18 00:58:00,62.9,38.2,29.86,WSW,241,7.0,15.0,40,0.00,,CLR,0.00,VWS V14.01,2013-05-18 07:58:00,
2013-05-18 01:03:00,62.9,37.6,29.85,West,261,8.0,22.0,39,0.00,,CLR,0.00,VWS V14.01,2013-05-18 08:03:00,
2013-05-18 01:08:00,62.8,37.5,29.86,West,275,7.0,22.0,39,0.00,,CLR,0.00,VWS V14.01,2013-05-18 08:08:00,
2013-05-18 01:13:00,62.7,38.0,29.86,West,270,8.0,15.0,40,0.00,,CLR,0.00,VWS V14.01,2013-05-18 08:13:00,
2013-05-18 01:18:00,62.5,36.6,29.86,WNW,288,2.0,15.0,38,0.00,,CLR,0.00,VWS V14.01,2013-05-18 08:18:00,
2013-05-18 01:23:00,62.5,37.2,29.86,West,268,8.0,23.0,39,0.00,,CLR,0.00,VWS V14.01,2013-05-18 08:23:00,
2013-05-18 01:28:00,62.4,37.1,29.86,West,271,7.0,18.0,39,0.00,,CLR,0.00,VWS V14.01,2013-05-18 08:28:00,
2013-05-18 01:33:00,62.2,37.0,29.86,West,281,14.0,16.0,39,0.00,,CLR,0.00,VWS V14.01,2013-05-18 08:33:00,
2013-05-18 01:38:00,62.1,36.9,29.86,West,281,12.0,19.0,39,0.00,,CLR,0.00,VWS V14.01,2013-05-18 08:38:00,
2013-05-18 01:43:00,61.9,36.7,29.86,West,269,8.0,14.0,39,0.00,,CLR,0.00,VWS V14.01,2013-05-18 08:43:00,
2013-05-18 01:48:00,61.7,36.5,29.86,WSW,246,7.0,17.0,39,0.00,,CLR,0.00,VWS V14.01,2013-05-18 08:48:00,
2013-05-18 01:53:00,61.6,36.4,29.86,West,267,10.0,13.0,39,0.00,,CLR,0.00,VWS V14.01,2013-05-18 08:53:00,
2013-05-18 01:58:00,61.5,35.7,29.86,West,281,11.0,18.0,38,0.00,,CLR,0.00,VWS V14.01,2013-05-18 08:58:00,
2013-05-18 02:03:00,61.4,35.6,29.86,WNW,285,5.0,14.0,38,0.00,,CLR,0.00,VWS V14.01,2013-05-18 09:03:00,
2013-05-18 02:09:00,61.3,35.5,29.86,West,272,4.0,12.0,38,0.00,,CLR,0.00,VWS V14.01,2013-05-18 09:09:00,
2013-05-18 02:14:00,61.2,35.4,29.87,West,268,1.0,16.0,38,0.00,,CLR,0.00,VWS V14.01,2013-05-18 09:14:00,
2013-05-18 02:19:00,61.1,35.3,29.87,WSW,249,8.0,13.0,38,0.00,,CLR,0.00,VWS V14.01,2013-05-18 09:19:00,
2013-05-18 02:24:00,61.0,35.2,29.87,WSW,250,1.0,13.0,38,0.00,,CLR,0.00,VWS V14.01,2013-05-18 09:24:00,
2013-05-18 02:29:00,60.9,35.1,29.87,West,273,4.0,14.0,38,0.00,,CLR,0.00,VWS V14.01,2013-05-18 09:29:00,
2013-05-18 02:34:00,60.7,35.0,29.87,West,273,15.0,15.0,38,0.00,,CLR,0.00,VWS V14.01,2013-05-18 09:34:00,
2013-05-18 02:39:00,60.6,34.9,29.87,WSW,252,12.0,15.0,38,0.00,,CLR,0.00,VWS V14.01,2013-05-18 09:39:00,
2013-05-18 02:44:00,60.5,35.4,29.87,West,268,2.0,14.0,39,0.00,,CLR,0.00,VWS V14.01,2013-05-18 09:44:00,
2013-05-18 02:49:00,60.4,35.3,29.87,West,280,7.0,11.0,39,0.00,,CLR,0.00,VWS V14.01,2013-05-18 09:49:00,
2013-05-18 02:54:00,60.3,35.3,29.87,WNW,287,6.0,11.0,39,0.00,,CLR,0.00,VWS V14.01,2013-05-18 09:54:00,
2013-05-18 02:59:00,60.1,35.7,29.87,West,266,7.0,15.0,40,0.00,,CLR,0.00,VWS V14.01,2013-05-18 09:59:00,
2013-05-18 03:04:00,60.0,35.6,29.87,WSW,250,3.0,14.0,40,0.00,,CLR,0.00,VWS V14.01,2013-05-18 10:04:00,
2013-05-18 03:09:00,59.9,35.5,29.88,WSW,253,5.0,13.0,40,0.00,,CLR,0.00,VWS V14.01,2013-05-18 10:09:00,
2013-05-18 03:14:00,59.9,35.5,29.88,West,261,5.0,14.0,40,0.00,,CLR,0.00,VWS V14.01,2013-05-18 10:14:00,
2013-05-18 03:19:00,59.8,35.5,29.87,West,275,6.0,14.0,40,0.00,,CLR,0.00,VWS V14.01,2013-05-18 10:19:00,
2013-05-18 03:24:00,59.7,35.4,29.87,West,265,4.0,15.0,40,0.00,,CLR,0.00,VWS V14.01,2013-05-18 10:24:00,
2013-05-18 03:30:00,59.6,35.3,29.87,West,272,2.0,15.0,40,0.00,,CLR,0.00,VWS V14.01,2013-05-18 10:30:00,
2013-05-18 03:35:00,59.6,35.3,29.88,West,276,9.0,13.0,40,0.00,,CLR,0.00,VWS V14.01,2013-05-18 10:35:00,
2013-05-18 03:40:00,59.5,35.2,29.88,WNW,286,9.0,9.0,40,0.00,,CLR,0.00,VWS V14.01,2013-05-18 10:40:00,
2013-05-18 03:45:00,59.5,35.2,29.88,West,263,2.0,5.0,40,0.00,,CLR,0.00,VWS V14.01,2013-05-18 10:45:00,
2013-05-18 03:50:00,59.4,35.1,29.87,West,267,6.0,12.0,40,0.00,,CLR,0.00,VWS V14.01,2013-05-18 10:50:00,
2013-05-18 03:55:00,59.4,35.1,29.87,WSW,253,2.0,11.0,40,0.00,,CLR,0.00,VWS V14.01,2013-05-18 10:55:00,
2013-05-18 04:00:00,59.5,34.5,29.87,West,275,7.0,7.0,39,0.00,,CLR,0.00,VWS V14.01,2013-05-18 11:00:00,
2013-05-18 04:05:00,59.7,34.7,29.86,West,261,8.0,8.0,39,0.00,,CLR,0.00,VWS V14.01,2013-05-18 11:05:00,
2013-05-18 04:10:00,59.7,34.1,29.87,West,275,11.0,11.0,38,0.00,,CLR,0.00,VWS V14.01,2013-05-18 11:10:00,
2013-05-18 04:15:00,59.7,34.1,29.87,WNW,290,8.0,14.0,38,0.00,,CLR,0.00,VWS V14.01,2013-05-18 11:15:00,
2013-05-18 04:20:00,59.6,34.0,29.87,WSW,258,3.0,7.0,38,0.00,,CLR,0.00,VWS V14.01,2013-05-18 11:20:00,
2013-05-18 04:25:00,59.5,33.9,29.87,West,272,11.0,11.0,38,0.00,,CLR,0.00,VWS V14.01,2013-05-18 11:25:00,
2013-05-18 04:30:00,59.6,34.0,29.87,West,262,5.0,8.0,38,0.00,,CLR,0.00,VWS V14.01,2013-05-18 11:30:00,
2013-05-18 04:35:00,59.5,33.9,29.87,SW,232,13.0,13.0,38,0.00,,CLR,0.00,VWS V14.01,2013-05-18 11:35:00,
2013-05-18 04:40:00,59.6,33.3,29.87,WNW,291,8.0,13.0,37,0.00,,CLR,0.00,VWS V14.01,2013-05-18 11:40:00,
2013-05-18 04:45:00,59.5,33.2,29.87,West,263,8.0,8.0,37,0.00,,CLR,0.00,VWS V14.01,2013-05-18 11:45:00,
2013-05-18 04:51:00,59.5,33.2,29.87,WSW,246,4.0,5.0,37,0.00,,CLR,0.00,VWS V14.01,2013-05-18 11:51:00,
2013-05-18 04:56:00,59.4,33.1,29.87,West,269,2.0,4.0,37,0.00,,CLR,0.00,VWS V14.01,2013-05-18 11:56:00,
2013-05-18 05:01:00,59.3,33.0,29.87,SW,229,3.0,7.0,37,0.00,,CLR,0.00,VWS V14.01,2013-05-18 12:01:00,
2013-05-18 05:06:00,59.4,33.1,29.88,SW,229,0.0,0.0,37,0.00,,CLR,0.00,VWS V14.01,2013-05-18 12:06:00,
2013-05-18 05:11:00,59.3,33.0,29.88,SW,230,4.0,4.0,37,0.00,,CLR,0.00,VWS V14.01,2013-05-18 12:11:00,
2013-05-18 05:16:00,59.1,32.9,29.88,SW,230,1.0,2.0,37,0.00,,CLR,0.00,VWS V14.01,2013-05-18 12:16:00,
2013-05-18 05:21:00,58.8,32.6,29.88,SW,230,0.0,3.0,37,0.00,,CLR,0.00,VWS V14.01,2013-05-18 12:21:00,
2013-05-18 05:26:00,58.6,33.1,29.89,SW,230,1.0,2.0,38,0.00,,CLR,0.00,VWS V14.01,2013-05-18 12:26:00,
2013-05-18 05:31:00,58.3,32.8,29.89,SW,230,0.0,1.0,38,0.00,,CLR,0.00,VWS V14.01,2013-05-18 12:31:00,
2013-05-18 05:36:00,58.0,32.6,29.89,SW,232,2.0,2.0,38,0.00,,CLR,0.00,VWS V14.01,2013-05-18 12:36:00,
2013-05-18 05:41:00,57.8,32.4,29.89,SW,232,0.0,1.0,38,0.00,,CLR,0.00,VWS V14.01,2013-05-18 12:41:00,
2013-05-18 05:46:00,57.7,32.3,29.89,SW,232,2.0,2.0,38,0.00,,CLR,0.00,VWS V14.01,2013-05-18 12:46:00,
2013-05-18 05:51:00,57.6,32.2,29.89,WSW,245,5.0,6.0,38,0.00,,CLR,0.00,VWS V14.01,2013-05-18 12:51:00,
2013-05-18 05:56:00,57.8,32.4,29.89,WSW,245,0.0,4.0,38,0.00,,CLR,0.00,VWS V14.01,2013-05-18 12:56:00,
2013-05-18 06:01:00,57.9,32.5,29.89,WSW,245,0.0,4.0,38,0.00,,CLR,0.00,VWS V14.01,2013-05-18 13:01:00,
2013-05-18 06:06:00,57.9,32.5,29.89,WSW,245,0.0,1.0,38,0.00,,CLR,0.00,VWS V14.01,2013-05-18 13:06:00,
2013-05-18 06:12:00,57.8,33.0,29.90,WSW,245,0.0,1.0,39,0.00,,CLR,0.00,VWS V14.01,2013-05-18 13:12:00,
2013-05-18 06:17:00,57.9,33.1,29.90,WSW,254,0.0,0.0,39,0.00,,CLR,0.00,VWS V14.01,2013-05-18 13:17:00,
2013-05-18 06:22:00,58.1,33.9,29.90,WSW,254,0.0,1.0,40,0.00,,CLR,0.00,VWS V14.01,2013-05-18 13:22:00,
2013-05-18 06:27:00,58.3,34.7,29.90,WSW,254,0.0,0.0,41,0.00,,CLR,0.00,VWS V14.01,2013-05-18 13:27:00,
2013-05-18 06:32:00,58.6,32.4,29.90,West,268,2.0,6.0,37,0.00,,CLR,0.00,VWS V14.01,2013-05-18 13:32:00,
2013-05-18 06:37:00,59.1,32.9,29.91,West,269,5.0,7.0,37,0.00,,CLR,0.00,VWS V14.01,2013-05-18 13:37:00,
2013-05-18 06:42:00,59.7,32.7,29.91,West,270,4.0,5.0,36,0.00,,CLR,0.00,VWS V14.01,2013-05-18 13:42:00,
2013-05-18 06:47:00,60.2,32.5,29.91,West,281,6.0,9.0,35,0.00,,CLR,0.00,VWS V14.01,2013-05-18 13:47:00,
2013-05-18 06:52:00,60.6,32.8,29.91,West,276,5.0,7.0,35,0.00,,CLR,0.00,VWS V14.01,2013-05-18 13:52:00,
2013-05-18 06:57:00,60.9,32.4,29.91,West,280,11.0,12.0,34,0.00,,CLR,0.00,VWS V14.01,2013-05-18 13:57:00,
2013-05-18 07:02:00,61.3,32.7,29.91,West,273,6.0,12.0,34,0.00,,CLR,0.00,VWS V14.01,2013-05-18 14:02:00,
2013-05-18 07:08:00,61.6,33.0,29.91,WNW,292,8.0,12.0,34,0.00,,CLR,0.00,VWS V14.01,2013-05-18 14:08:00,
2013-05-18 07:13:00,62.0,32.6,29.92,WNW,285,4.0,12.0,33,0.00,,CLR,0.00,VWS V14.01,2013-05-18 14:13:00,
2013-05-18 07:18:00,62.2,32.8,29.92,West,268,7.0,13.0,33,0.00,,CLR,0.00,VWS V14.01,2013-05-18 14:18:00,
2013-05-18 07:23:00,62.5,33.0,29.91,WNW,287,2.0,13.0,33,0.00,,CLR,0.00,VWS V14.01,2013-05-18 14:23:00,
2013-05-18 07:28:00,62.7,32.4,29.91,WNW,282,6.0,15.0,32,0.00,,CLR,0.00,VWS V14.01,2013-05-18 14:28:00,
2013-05-18 07:33:00,63.0,32.7,29.92,West,279,5.0,15.0,32,0.00,,CLR,0.00,VWS V14.01,2013-05-18 14:33:00,
2013-05-18 07:38:00,63.3,33.0,29.92,WNW,282,2.0,12.0,32,0.00,,CLR,0.00,VWS V14.01,2013-05-18 14:38:00,
2013-05-18 07:43:00,63.6,33.2,29.92,West,280,5.0,9.0,32,0.00,,CLR,0.00,VWS V14.01,2013-05-18 14:43:00,
2013-05-18 07:48:00,63.9,33.5,29.92,West,278,2.0,8.0,32,0.00,,CLR,0.00,VWS V14.01,2013-05-18 14:48:00,
2013-05-18 07:53:00,64.2,33.0,29.92,West,276,5.0,12.0,31,0.00,,CLR,0.00,VWS V14.01,2013-05-18 14:53:00,
2013-05-18 07:58:00,64.4,33.1,29.92,WNW,300,7.0,12.0,31,0.00,,CLR,0.00,VWS V14.01,2013-05-18 14:58:00,
2013-05-18 08:03:00,64.8,33.5,29.92,WNW,298,4.0,12.0,31,0.00,,CLR,0.00,VWS V14.01,2013-05-18 15:03:00,
2013-05-18 08:08:00,65.2,33.0,29.92,West,273,5.0,13.0,30,0.00,,CLR,0.00,VWS V14.01,2013-05-18 15:08:00,
2013-05-18 08:13:00,65.6,34.2,29.92,West,273,5.0,7.0,31,0.00,,CLR,0.00,VWS V14.01,2013-05-18 15:13:00,
2013-05-18 08:18:00,65.9,34.4,29.92,West,271,5.0,8.0,31,0.00,,CLR,0.00,VWS V14.01,2013-05-18 15:18:00,
2013-05-18 08:23:00,66.5,33.3,29.92,WNW,286,6.0,12.0,29,0.00,,CLR,0.00,VWS V14.01,2013-05-18 15:23:00,
2013-05-18 08:28:00,66.8,32.7,29.93,WNW,287,7.0,12.0,28,0.00,,CLR,0.00,VWS V14.01,2013-05-18 15:28:00,
2013-05-18 08:33:00,67.1,32.9,29.92,WNW,290,8.0,14.0,28,0.00,,CLR,0.00,VWS V14.01,2013-05-18 15:33:00,
2013-05-18 08:39:00,67.2,33.0,29.92,WNW,287,4.0,8.0,28,0.00,,CLR,0.00,VWS V14.01,2013-05-18 15:39:00,
2013-05-18 08:44:00,67.5,32.4,29.92,WNW,287,8.0,11.0,27,0.00,,CLR,0.00,VWS V14.01,2013-05-18 15:44:00,
2013-05-18 08:49:00,67.7,32.5,29.92,WNW,296,5.0,11.0,27,0.00,,CLR,0.00,VWS V14.01,2013-05-18 15:49:00,
2013-05-18 08:54:00,68.1,33.8,29.92,WNW,296,11.0,13.0,28,0.00,,CLR,0.00,VWS V14.01,2013-05-18 15:54:00,
2013-05-18 08:59:00,68.4,32.2,29.92,WNW,296,6.0,9.0,26,0.00,,CLR,0.00,VWS V14.01,2013-05-18 15:59:00,
2013-05-18 09:04:00,68.8,33.5,29.92,WNW,297,1.0,9.0,27,0.00,,CLR,0.00,VWS V14.01,2013-05-18 16:04:00,
2013-05-18 09:09:00,69.2,32.9,29.92,WNW,296,5.0,8.0,26,0.00,,CLR,0.00,VWS V14.01,2013-05-18 16:09:00,
2013-05-18 09:14:00,69.5,33.1,29.92,WNW,288,2.0,9.0,26,0.00,,CLR,0.00,VWS V14.01,2013-05-18 16:14:00,
2013-05-18 09:19:00,69.7,32.3,29.92,WNW,292,6.0,8.0,25,0.00,,CLR,0.00,VWS V14.01,2013-05-18 16:19:00,
2013-05-18 09:24:00,70.2,32.8,29.92,WNW,292,4.0,8.0,25,0.00,,CLR,0.00,VWS V14.01,2013-05-18 16:24:00,
2013-05-18 09:29:00,70.5,32.0,29.92,WNW,293,4.0,9.0,24,0.00,,CLR,0.00,VWS V14.01,2013-05-18 16:29:00,
2013-05-18 09:34:00,70.9,31.3,29.92,WNW,292,2.0,13.0,23,0.00,,CLR,0.00,VWS V14.01,2013-05-18 16:34:00,
2013-05-18 09:39:00,71.2,31.5,29.92,WNW,293,1.0,6.0,23,0.00,,CLR,0.00,VWS V14.01,2013-05-18 16:39:00,
2013-05-18 09:44:00,71.5,32.8,29.92,WNW,296,8.0,8.0,24,0.00,,CLR,0.00,VWS V14.01,2013-05-18 16:44:00,
2013-05-18 09:49:00,71.7,33.0,29.92,North,9,6.0,11.0,24,0.00,,CLR,0.00,VWS V14.01,2013-05-18 16:49:00,
2013-05-18 09:54:00,72.4,32.5,29.91,WNW,302,4.0,7.0,23,0.00,,CLR,0.00,VWS V14.01,2013-05-18 16:54:00,
2013-05-18 09:59:00,72.7,34.9,29.91,WNW,300,4.0,7.0,25,0.00,,CLR,0.00,VWS V14.01,2013-05-18 16:59:00,
2013-05-18 10:05:00,73.5,33.5,29.91,WNW,298,8.0,9.0,23,0.00,,CLR,0.00,VWS V14.01,2013-05-18 17:05:00,
2013-05-18 10:10:00,73.5,33.5,29.91,WNW,290,2.0,12.0,23,0.00,,CLR,0.00,VWS V14.01,2013-05-18 17:10:00,
2013-05-18 10:15:00,74.0,32.8,29.91,WNW,297,12.0,12.0,22,0.00,,CLR,0.00,VWS V14.01,2013-05-18 17:15:00,
2013-05-18 10:20:00,74.1,31.7,29.91,WNW,288,8.0,12.0,21,0.00,,CLR,0.00,VWS V14.01,2013-05-18 17:20:00,
2013-05-18 10:25:00,74.1,31.7,29.91,WNW,293,4.0,4.0,21,0.00,,CLR,0.00,VWS V14.01,2013-05-18 17:25:00,
2013-05-18 10:30:00,74.3,31.9,29.91,WNW,293,1.0,6.0,21,0.00,,CLR,0.00,VWS V14.01,2013-05-18 17:30:00,
2013-05-18 10:35:00,75.1,31.3,29.91,WNW,296,1.0,4.0,20,0.00,,CLR,0.00,VWS V14.01,2013-05-18 17:35:00,
2013-05-18 10:40:00,75.3,30.2,29.91,WNW,295,4.0,11.0,19,0.00,,CLR,0.00,VWS V14.01,2013-05-18 17:40:00,
2013-05-18 10:45:00,75.8,30.6,29.91,WNW,291,2.0,7.0,19,0.00,,CLR,0.00,VWS V14.01,2013-05-18 17:45:00,
2013-05-18 10:50:00,75.8,33.1,29.91,WNW,293,5.0,8.0,21,0.00,,CLR,0.00,VWS V14.01,2013-05-18 17:50:00,
2013-05-18 10:55:00,76.2,33.5,29.91,WNW,298,5.0,5.0,21,0.00,,CLR,0.00,VWS V14.01,2013-05-18 17:55:00,
2013-05-18 11:00:00,76.6,30.0,29.91,NW,311,5.0,8.0,18,0.00,,CLR,0.00,VWS V14.01,2013-05-18 18:00:00,
2013-05-18 11:05:00,77.0,28.9,29.91,WNW,296,2.0,2.0,17,0.00,,CLR,0.00,VWS V14.01,2013-05-18 18:05:00,
2013-05-18 11:10:00,77.1,31.7,29.90,NW,315,1.0,8.0,19,0.00,,CLR,0.00,VWS V14.01,2013-05-18 18:10:00,
2013-05-18 11:15:00,77.9,29.6,29.90,NW,304,1.0,5.0,17,0.00,,CLR,0.00,VWS V14.01,2013-05-18 18:15:00,
2013-05-18 11:20:00,77.9,33.6,29.90,NNW,328,6.0,8.0,20,0.00,,CLR,0.00,VWS V14.01,2013-05-18 18:20:00,
2013-05-18 11:25:00,78.3,29.9,29.90,WNW,293,0.0,4.0,17,0.00,,CLR,0.00,VWS V14.01,2013-05-18 18:25:00,
2013-05-18 11:30:00,78.5,30.1,29.90,WNW,295,8.0,13.0,17,0.00,,CLR,0.00,VWS V14.01,2013-05-18 18:30:00,
2013-05-18 11:36:00,78.4,32.8,29.90,NW,317,5.0,8.0,19,0.00,,CLR,0.00,VWS V14.01,2013-05-18 18:36:00,
2013-05-18 11:41:00,78.7,34.3,29.90,NNW,341,5.0,8.0,20,0.00,,CLR,0.00,VWS V14.01,2013-05-18 18:41:00,
2013-05-18 11:46:00,79.6,31.0,29.89,North,350,7.0,7.0,17,0.00,,CLR,0.00,VWS V14.01,2013-05-18 18:46:00,
2013-05-18 11:51:00,80.0,29.8,29.89,WNW,298,1.0,11.0,16,0.00,,CLR,0.00,VWS V14.01,2013-05-18 18:51:00,
2013-05-18 11:56:00,80.3,28.5,29.89,WNW,292,2.0,11.0,15,0.00,,CLR,0.00,VWS V14.01,2013-05-18 18:56:00,
2013-05-18 12:01:00,80.2,26.7,29.89,WNW,299,4.0,11.0,14,0.00,,CLR,0.00,VWS V14.01,2013-05-18 19:01:00,
2013-05-18 12:06:00,79.5,29.4,29.89,WNW,288,0.0,2.0,16,0.00,,CLR,0.00,VWS V14.01,2013-05-18 19:06:00,
2013-05-18 12:11:00,79.6,27.9,29.89,WNW,288,1.0,4.0,15,0.00,,CLR,0.00,VWS V14.01,2013-05-18 19:11:00,
2013-05-18 12:16:00,80.3,33.0,29.88,NW,307,6.0,8.0,18,0.00,,CLR,0.00,VWS V14.01,2013-05-18 19:16:00,
2013-05-18 12:21:00,80.7,30.4,29.88,NW,306,6.0,8.0,16,0.00,,CLR,0.00,VWS V14.01,2013-05-18 19:21:00,
2013-05-18 12:26:00,81.1,29.1,29.88,WNW,295,6.0,6.0,15,0.00,,CLR,0.00,VWS V14.01,2013-05-18 19:26:00,
2013-05-18 12:31:00,81.3,27.6,29.88,WNW,290,4.0,9.0,14,0.00,,CLR,0.00,VWS V14.01,2013-05-18 19:31:00,
2013-05-18 12:36:00,81.6,32.6,29.88,NW,306,7.0,9.0,17,0.00,,CLR,0.00,VWS V14.01,2013-05-18 19:36:00,
2013-05-18 12:41:00,81.6,27.8,29.88,West,273,0.0,12.0,14,0.00,,CLR,0.00,VWS V14.01,2013-05-18 19:41:00,
2013-05-18 12:47:00,82.0,31.4,29.88,WNW,301,9.0,11.0,16,0.00,,CLR,0.00,VWS V14.01,2013-05-18 19:47:00,
2013-05-18 12:52:00,82.1,26.4,29.88,WNW,302,14.0,16.0,13,0.00,,CLR,0.00,VWS V14.01,2013-05-18 19:52:00,
2013-05-18 12:57:00,82.4,26.7,29.88,WNW,292,6.0,14.0,13,0.00,,CLR,0.00,VWS V14.01,2013-05-18 19:57:00,
2013-05-18 13:02:00,82.3,26.6,29.87,WNW,286,9.0,14.0,13,0.00,,CLR,0.00,VWS V14.01,2013-05-18 20:02:00,
2013-05-18 13:07:00,81.9,28.1,29.87,West,275,1.0,15.0,14,0.00,,CLR,0.00,VWS V14.01,2013-05-18 20:07:00,
2013-05-18 13:12:00,81.6,29.5,29.87,WNW,282,8.0,9.0,15,0.00,,CLR,0.00,VWS V14.01,2013-05-18 20:12:00,
2013-05-18 13:17:00,81.4,27.7,29.87,WNW,296,14.0,14.0,14,0.00,,CLR,0.00,VWS V14.01,2013-05-18 20:17:00,
2013-05-18 13:22:00,81.3,25.8,29.87,WNW,289,16.0,16.0,13,0.00,,CLR,0.00,VWS V14.01,2013-05-18 20:22:00,
2013-05-18 13:27:00,81.2,27.5,29.87,WNW,298,4.0,13.0,14,0.00,,CLR,0.00,VWS V14.01,2013-05-18 20:27:00,
2013-05-18 13:32:00,81.4,27.7,29.86,WNW,303,5.0,13.0,14,0.00,,CLR,0.00,VWS V14.01,2013-05-18 20:32:00,
2013-05-18 13:37:00,81.8,28.0,29.87,WNW,285,16.0,19.0,14,0.00,,CLR,0.00,VWS V14.01,2013-05-18 20:37:00,
2013-05-18 13:42:00,82.0,26.4,29.87,WNW,291,9.0,19.0,13,0.00,,CLR,0.00,VWS V14.01,2013-05-18 20:42:00,
2013-05-18 13:47:00,81.6,26.0,29.87,WNW,289,6.0,14.0,13,0.00,,CLR,0.00,VWS V14.01,2013-05-18 20:47:00,
2013-05-18 13:52:00,82.0,26.4,29.87,WNW,303,1.0,14.0,13,0.00,,CLR,0.00,VWS V14.01,2013-05-18 20:52:00,
2013-05-18 13:57:00,82.5,26.8,29.87,WNW,300,11.0,16.0,13,0.00,,CLR,0.00,VWS V14.01,2013-05-18 20:57:00,
2013-05-18 14:02:00,82.9,27.1,29.87,WNW,297,9.0,16.0,13,0.00,,CLR,0.00,VWS V14.01,2013-05-18 21:02:00,
2013-05-18 14:07:00,83.0,33.7,29.86,West,265,8.0,16.0,17,0.00,,CLR,0.00,VWS V14.01,2013-05-18 21:07:00,
2013-05-18 14:12:00,82.8,36.4,29.86,WNW,284,2.0,20.0,19,0.00,,CLR,0.00,VWS V14.01,2013-05-18 21:12:00,
2013-05-18 14:17:00,83.0,32.2,29.87,West,274,8.0,21.0,16,0.00,,CLR,0.00,VWS V14.01,2013-05-18 21:17:00,
2013-05-18 14:23:00,82.6,30.3,29.86,WNW,300,13.0,21.0,15,0.00,,CLR,0.00,VWS V14.01,2013-05-18 21:23:00,
2013-05-18 14:28:00,82.5,31.8,29.87,WNW,287,9.0,19.0,16,0.00,,CLR,0.00,VWS V14.01,2013-05-18 21:28:00,
2013-05-18 14:33:00,82.3,26.6,29.87,NW,311,18.0,18.0,13,0.00,,CLR,0.00,VWS V14.01,2013-05-18 21:33:00,
2013-05-18 14:38:00,81.9,29.8,29.86,WNW,292,5.0,19.0,15,0.00,,CLR,0.00,VWS V14.01,2013-05-18 21:38:00,
2013-05-18 14:43:00,82.0,28.1,29.87,West,272,8.0,13.0,14,0.00,,CLR,0.00,VWS V14.01,2013-05-18 21:43:00,
2013-05-18 14:48:00,81.8,28.0,29.86,WNW,292,14.0,23.0,14,0.00,,CLR,0.00,VWS V14.01,2013-05-18 21:48:00,
2013-05-18 14:53:00,81.7,29.6,29.86,NW,309,12.0,24.0,15,0.00,,CLR,0.00,VWS V14.01,2013-05-18 21:53:00,
2013-05-18 14:58:00,81.6,26.0,29.86,NW,313,14.0,25.0,13,0.00,,CLR,0.00,VWS V14.01,2013-05-18 21:58:00,
2013-05-18 15:03:00,81.4,25.9,29.87,WNW,300,16.0,25.0,13,0.00,,CLR,0.00,VWS V14.01,2013-05-18 22:03:00,
2013-05-18 15:08:00,81.3,25.8,29.87,West,277,9.0,15.0,13,0.00,,CLR,0.00,VWS V14.01,2013-05-18 22:08:00,
2013-05-18 15:13:00,81.2,25.7,29.87,WNW,284,9.0,16.0,13,0.00,,CLR,0.00,VWS V14.01,2013-05-18 22:13:00,
2013-05-18 15:18:00,81.3,27.6,29.86,WNW,294,16.0,20.0,14,0.00,,CLR,0.00,VWS V14.01,2013-05-18 22:18:00,
2013-05-18 15:23:00,80.9,25.5,29.86,WNW,282,9.0,24.0,13,0.00,,CLR,0.00,VWS V14.01,2013-05-18 22:23:00,
2013-05-18 15:29:00,80.9,25.5,29.86,WNW,282,4.0,18.0,13,0.00,,CLR,0.00,VWS V14.01,2013-05-18 22:29:00,
2013-05-18 15:34:00,80.7,27.1,29.86,NW,310,13.0,18.0,14,0.00,,CLR,0.00,VWS V14.01,2013-05-18 22:34:00,
2013-05-18 15:39:00,80.7,28.8,29.86,WNW,287,12.0,29.0,15,0.00,,CLR,0.00,VWS V14.01,2013-05-18 22:39:00,
2013-05-18 15:44:00,80.4,26.9,29.86,WNW,291,11.0,29.0,14,0.00,,CLR,0.00,VWS V14.01,2013-05-18 22:44:00,
2013-05-18 15:49:00,80.1,26.6,29.86,WNW,294,23.0,27.0,14,0.00,,CLR,0.00,VWS V14.01,2013-05-18 22:49:00,
2013-05-18 15:54:00,79.8,26.4,29.86,West,275,14.0,27.0,14,0.00,,CLR,0.00,VWS V14.01,2013-05-18 22:54:00,
2013-05-18 15:59:00,79.3,29.3,29.87,WNW,285,11.0,25.0,16,0.00,,CLR,0.00,VWS V14.01,2013-05-18 22:59:00,
2013-05-18 16:04:00,78.7,27.2,29.87,WNW,289,22.0,23.0,15,0.00,,CLR,0.00,VWS V14.01,2013-05-18 23:04:00,
2013-05-18 16:09:00,78.4,28.5,29.87,West,271,8.0,22.0,16,0.00,,CLR,0.00,VWS V14.01,2013-05-18 23:09:00,
2013-05-18 16:14:00,78.1,28.3,29.87,West,270,9.0,22.0,16,0.00,,CLR,0.00,VWS V14.01,2013-05-18 23:14:00,
2013-05-18 16:19:00,78.1,28.3,29.87,West,275,14.0,18.0,16,0.00,,CLR,0.00,VWS V14.01,2013-05-18 23:19:00,
2013-05-18 16:24:00,78.1,28.3,29.87,West,278,7.0,22.0,16,0.00,,CLR,0.00,VWS V14.01,2013-05-18 23:24:00,
2013-05-18 16:29:00,78.2,26.8,29.87,WNW,289,8.0,25.0,15,0.00,,CLR,0.00,VWS V14.01,2013-05-18 23:29:00,
2013-05-18 16:34:00,78.2,28.4,29.86,WSW,244,7.0,14.0,16,0.00,,CLR,0.00,VWS V14.01,2013-05-18 23:34:00,
2013-05-18 16:39:00,78.1,26.7,29.86,West,259,11.0,24.0,15,0.00,,CLR,0.00,VWS V14.01,2013-05-18 23:39:00,
2013-05-18 16:44:00,78.0,25.0,29.86,West,267,12.0,24.0,14,0.00,,CLR,0.00,VWS V14.01,2013-05-18 23:44:00,
2013-05-18 16:49:00,77.9,26.6,29.86,NW,311,19.0,22.0,15,0.00,,CLR,0.00,VWS V14.01,2013-05-18 23:49:00,
2013-05-18 16:54:00,77.7,26.4,29.86,WNW,284,15.0,22.0,15,0.00,,CLR,0.00,VWS V14.01,2013-05-18 23:54:00,
2013-05-18 17:00:00,77.5,26.2,29.86,WNW,284,13.0,25.0,15,0.00,,CLR,0.00,VWS V14.01,2013-05-19 00:00:00,
2013-05-18 17:05:00,77.1,25.9,29.86,WNW,298,19.0,22.0,15,0.00,,CLR,0.00,VWS V14.01,2013-05-19 00:05:00,
2013-05-18 17:10:00,76.7,25.6,29.86,West,276,14.0,29.0,15,0.00,,CLR,0.00,VWS V14.01,2013-05-19 00:10:00,
2013-05-18 17:15:00,76.1,25.1,29.86,WNW,282,16.0,16.0,15,0.00,,CLR,0.00,VWS V14.01,2013-05-19 00:15:00,
2013-05-18 17:20:00,75.8,26.5,29.87,WNW,299,16.0,26.0,16,0.00,,CLR,0.00,VWS V14.01,2013-05-19 00:20:00,
2013-05-18 17:25:00,75.4,26.1,29.86,NW,325,18.0,19.0,16,0.00,,CLR,0.00,VWS V14.01,2013-05-19 00:25:00,
2013-05-18 17:30:00,75.1,24.3,29.87,WSW,256,19.0,30.0,15,0.00,,CLR,0.00,VWS V14.01,2013-05-19 00:30:00,
2013-05-18 17:35:00,74.7,25.6,29.86,West,279,9.0,20.0,16,0.00,,CLR,0.00,VWS V14.01,2013-05-19 00:35:00,
2013-05-18 17:40:00,74.8,25.6,29.86,West,274,11.0,27.0,16,0.00,,CLR,0.00,VWS V14.01,2013-05-19 00:40:00,
2013-05-18 17:45:00,74.7,24.0,29.86,West,274,15.0,15.0,15,0.00,,CLR,0.00,VWS V14.01,2013-05-19 00:45:00,
2013-05-18 17:50:00,74.8,24.1,29.86,NW,307,12.0,23.0,15,0.00,,CLR,0.00,VWS V14.01,2013-05-19 00:50:00,
2013-05-18 17:55:00,74.8,24.1,29.86,WNW,292,7.0,19.0,15,0.00,,CLR,0.00,VWS V14.01,2013-05-19 00:55:00,
2013-05-18 18:00:00,74.7,22.4,29.87,WNW,287,16.0,16.0,14,0.00,,,0.00,VWS V14.01,2013-05-19 01:00:00,
2013-05-18 18:05:00,74.9,20.8,29.88,WNW,299,5.0,8.0,13,0.00,,,0.00,VWS V14.01,2013-05-19 01:05:00,
2013-05-18 18:10:00,75.1,22.7,29.88,West,279,6.0,6.0,14,0.00,,,0.00,VWS V14.01,2013-05-19 01:10:00,
2013-05-18 18:16:00,74.9,24.2,29.89,WNW,283,8.0,15.0,15,0.00,,,0.00,VWS V14.01,2013-05-19 01:16:00,
2013-05-18 18:21:00,74.4,23.8,29.88,WNW,300,15.0,15.0,15,0.00,,,0.00,VWS V14.01,2013-05-19 01:21:00,
2013-05-18 18:26:00,73.9,23.4,29.89,WNW,294,18.0,21.0,15,0.00,,,0.00,VWS V14.01,2013-05-19 01:26:00,
2013-05-18 18:31:00,73.3,22.9,29.89,WNW,290,7.0,8.0,15,0.00,,,0.00,VWS V14.01,2013-05-19 01:31:00,
2013-05-18 18:36:00,72.9,24.1,29.88,WSW,250,7.0,18.0,16,0.00,,,0.00,VWS V14.01,2013-05-19 01:36:00,
2013-05-18 18:41:00,72.7,24.0,29.88,West,266,2.0,8.0,16,0.00,,,0.00,VWS V14.01,2013-05-19 01:41:00,
2013-05-18 18:46:00,72.4,23.7,29.88,West,273,2.0,11.0,16,0.00,,,0.00,VWS V14.01,2013-05-19 01:46:00,
2013-05-18 18:51:00,72.4,23.7,29.88,WNW,285,11.0,11.0,16,0.00,,,0.00,VWS V14.01,2013-05-19 01:51:00,
2013-05-18 18:56:00,72.4,23.7,29.88,West,269,1.0,4.0,16,0.00,,,0.00,VWS V14.01,2013-05-19 01:56:00,
2013-05-18 19:01:00,72.6,23.9,29.89,West,271,6.0,7.0,16,0.00,,CLR,0.00,VWS V14.01,2013-05-19 02:01:00,
2013-05-18 19:06:00,72.7,24.0,29.89,West,265,4.0,4.0,16,0.00,,CLR,0.00,VWS V14.01,2013-05-19 02:06:00,
2013-05-18 19:11:00,72.6,23.9,29.89,West,266,1.0,3.0,16,0.00,,CLR,0.00,VWS V14.01,2013-05-19 02:11:00,
2013-05-18 19:16:00,72.4,23.7,29.89,SW,233,2.0,8.0,16,0.00,,CLR,0.00,VWS V14.01,2013-05-19 02:16:00,
2013-05-18 19:21:00,72.0,24.8,29.89,West,261,3.0,8.0,17,0.00,,CLR,0.00,VWS V14.01,2013-05-19 02:21:00,
2013-05-18 19:26:00,71.5,24.4,29.90,ESE,121,2.0,9.0,17,0.00,,CLR,0.00,VWS V14.01,2013-05-19 02:26:00,
2013-05-18 19:31:00,71.2,25.6,29.89,ESE,119,2.0,4.0,18,0.00,,CLR,0.00,VWS V14.01,2013-05-19 02:31:00,
2013-05-18 19:36:00,70.6,25.1,29.90,ESE,121,2.0,4.0,18,0.00,,CLR,0.00,VWS V14.01,2013-05-19 02:36:00,
2013-05-18 19:42:00,70.3,24.8,29.90,SW,235,0.0,0.0,18,0.00,,CLR,0.00,VWS V14.01,2013-05-19 02:42:00,
2013-05-18 19:47:00,69.7,24.3,29.90,West,273,4.0,11.0,18,0.00,,CLR,0.00,VWS V14.01,2013-05-19 02:47:00,
2013-05-18 19:52:00,69.4,24.1,29.90,West,259,4.0,4.0,18,0.00,,CLR,0.00,VWS V14.01,2013-05-19 02:52:00,
2013-05-18 19:57:00,69.1,25.1,29.90,WNW,284,1.0,13.0,19,0.00,,CLR,0.00,VWS V14.01,2013-05-19 02:57:00,
2013-05-18 20:02:00,68.8,24.9,29.90,WNW,285,0.0,11.0,19,0.00,,CLR,0.00,VWS V14.01,2013-05-19 03:02:00,
2013-05-18 20:07:00,68.6,23.4,29.90,WNW,282,2.0,13.0,18,0.00,,CLR,0.00,VWS V14.01,2013-05-19 03:07:00,
2013-05-18 20:12:00,68.4,23.3,29.90,WSW,248,1.0,9.0,18,0.00,,CLR,0.00,VWS V14.01,2013-05-19 03:12:00,
2013-05-18 20:17:00,68.3,21.8,29.90,SW,234,1.0,19.0,17,0.00,,CLR,0.00,VWS V14.01,2013-05-19 03:17:00,
2013-05-18 20:22:00,68.2,21.8,29.90,WNW,290,4.0,8.0,17,0.00,,CLR,0.00,VWS V14.01,2013-05-19 03:22:00,
2013-05-18 20:27:00,68.0,21.6,29.90,SW,234,5.0,11.0,17,0.00,,CLR,0.00,VWS V14.01,2013-05-19 03:27:00,
2013-05-18 20:32:00,68.1,20.2,29.90,West,277,6.0,13.0,16,0.00,,CLR,0.00,VWS V14.01,2013-05-19 03:32:00,
2013-05-18 20:37:00,68.1,20.2,29.90,West,273,8.0,13.0,16,0.00,,CLR,0.00,VWS V14.01,2013-05-19 03:37:00,
2013-05-18 20:42:00,68.1,20.2,29.90,West,267,1.0,7.0,16,0.00,,CLR,0.00,VWS V14.01,2013-05-19 03:42:00,
2013-05-18 20:47:00,67.9,21.5,29.90,West,276,9.0,9.0,17,0.00,,CLR,0.00,VWS V14.01,2013-05-19 03:47:00,
2013-05-18 20:52:00,67.7,21.4,29.90,West,277,1.0,6.0,17,0.00,,CLR,0.00,VWS V14.01,2013-05-19 03:52:00,
2013-05-18 20:57:00,67.6,21.3,29.90,West,278,7.0,9.0,17,0.00,,CLR,0.00,VWS V14.01,2013-05-19 03:57:00,
2013-05-18 21:01:00,67.6,21.3,29.89,West,271,11.0,11.0,17,0.00,,CLR,0.00,VWS V14.01,2013-05-19 04:01:00,
2013-05-18 21:02:00,67.6,21.3,29.90,West,273,9.0,11.0,17,0.00,,CLR,0.00,VWS V14.01,2013-05-19 04:02:00,
2013-05-18 21:03:00,67.6,21.3,29.89,WNW,288,6.0,14.0,17,0.00,,CLR,0.00,VWS V14.01,2013-05-19 04:03:00,
2013-05-18 21:04:00,67.6,21.3,29.89,WNW,288,6.0,14.0,17,0.00,,CLR,0.00,VWS V14.01,2013-05-19 04:04:00,
2013-05-18 21:05:00,67.7,21.4,29.90,WNW,286,1.0,14.0,17,0.00,,CLR,0.00,VWS V14.01,2013-05-19 04:05:00,
2013-05-18 21:10:00,67.6,22.6,29.90,West,278,4.0,8.0,18,0.00,,CLR,0.00,VWS V14.01,2013-05-19 04:10:00,
2013-05-18 21:15:00,67.6,22.6,29.89,West,275,6.0,14.0,18,0.00,,CLR,0.00,VWS V14.01,2013-05-19 04:15:00,
2013-05-18 21:20:00,67.6,22.6,29.89,WSW,245,11.0,19.0,18,0.00,,CLR,0.00,VWS V14.01,2013-05-19 04:20:00,
2013-05-18 21:25:00,67.6,22.6,29.89,West,265,6.0,12.0,18,0.00,,CLR,0.00,VWS V14.01,2013-05-19 04:25:00,
2013-05-18 21:30:00,67.6,22.6,29.88,West,278,18.0,18.0,18,0.00,,CLR,0.00,VWS V14.01,2013-05-19 04:30:00,
2013-05-18 21:35:00,67.7,22.7,29.89,WSW,252,1.0,9.0,18,0.00,,CLR,0.00,VWS V14.01,2013-05-19 04:35:00,
2013-05-18 21:40:00,67.7,22.7,29.89,WNW,288,13.0,13.0,18,0.00,,CLR,0.00,VWS V14.01,2013-05-19 04:40:00,
2013-05-18 21:45:00,67.8,22.8,29.89,West,265,3.0,5.0,18,0.00,,CLR,0.00,VWS V14.01,2013-05-19 04:45:00,
2013-05-18 21:50:00,67.8,22.8,29.90,West,265,0.0,2.0,18,0.00,,CLR,0.00,VWS V14.01,2013-05-19 04:50:00,
2013-05-18 21:55:00,67.7,22.7,29.91,WSW,252,0.0,2.0,18,0.00,,CLR,0.00,VWS V14.01,2013-05-19 04:55:00,
2013-05-18 22:00:00,67.5,23.8,29.91,SSW,206,2.0,4.0,19,0.00,,CLR,0.00,VWS V14.01,2013-05-19 05:00:00,
2013-05-18 22:05:00,67.4,22.5,29.91,West,279,1.0,6.0,18,0.00,,CLR,0.00,VWS V14.01,2013-05-19 05:05:00,
2013-05-18 22:10:00,67.4,23.7,29.90,West,279,0.0,2.0,19,0.00,,CLR,0.00,VWS V14.01,2013-05-19 05:10:00,
2013-05-18 22:16:00,67.2,23.6,29.90,West,279,0.0,0.0,19,0.00,,CLR,0.00,VWS V14.01,2013-05-19 05:16:00,
2013-05-18 22:21:00,66.8,23.2,29.91,SW,229,1.0,4.0,19,0.00,,CLR,0.00,VWS V14.01,2013-05-19 05:21:00,
2013-05-18 22:26:00,66.8,23.2,29.90,SW,232,0.0,3.0,19,0.00,,CLR,0.00,VWS V14.01,2013-05-19 05:26:00,
2013-05-18 22:31:00,66.9,23.3,29.90,SW,232,1.0,4.0,19,0.00,,CLR,0.00,VWS V14.01,2013-05-19 05:31:00,
2013-05-18 22:36:00,66.9,23.3,29.90,SW,232,0.0,4.0,19,0.00,,CLR,0.00,VWS V14.01,2013-05-19 05:36:00,
2013-05-18 22:41:00,66.8,23.2,29.90,WSW,241,2.0,2.0,19,0.00,,CLR,0.00,VWS V14.01,2013-05-19 05:41:00,
2013-05-18 22:46:00,66.7,24.4,29.90,WSW,241,2.0,3.0,20,0.00,,CLR,0.00,VWS V14.01,2013-05-19 05:46:00,
2013-05-18 22:51:00,66.6,23.1,29.90,WSW,241,0.0,4.0,19,0.00,,CLR,0.00,VWS V14.01,2013-05-19 05:51:00,
2013-05-18 22:56:00,66.6,23.1,29.91,WSW,241,0.0,2.0,19,0.00,,CLR,0.00,VWS V14.01,2013-05-19 05:56:00,
2013-05-18 23:01:00,66.4,24.1,29.91,SSE,149,1.0,7.0,20,0.00,,CLR,0.00,VWS V14.01,2013-05-19 06:01:00,
2013-05-18 23:06:00,66.4,22.9,29.91,South,184,4.0,4.0,19,0.00,,CLR,0.00,VWS V14.01,2013-05-19 06:06:00,
2013-05-18 23:11:00,66.4,22.9,29.91,WNW,288,4.0,11.0,19,0.00,,CLR,0.00,VWS V14.01,2013-05-19 06:11:00,
2013-05-18 23:16:00,66.5,23.0,29.90,WNW,283,7.0,11.0,19,0.00,,CLR,0.00,VWS V14.01,2013-05-19 06:16:00,
2013-05-18 23:21:00,66.7,23.2,29.90,West,276,8.0,16.0,19,0.00,,CLR,0.00,VWS V14.01,2013-05-19 06:21:00,
2013-05-18 23:26:00,66.8,23.2,29.90,WNW,290,5.0,16.0,19,0.00,,CLR,0.00,VWS V14.01,2013-05-19 06:26:00,
2013-05-18 23:32:00,66.8,23.2,29.90,West,277,11.0,15.0,19,0.00,,CLR,0.00,VWS V14.01,2013-05-19 06:32:00,
2013-05-18 23:37:00,66.8,23.2,29.90,WSW,250,4.0,19.0,19,0.00,,CLR,0.00,VWS V14.01,2013-05-19 06:37:00,
2013-05-18 23:42:00,66.9,23.3,29.90,WNW,284,5.0,14.0,19,0.00,,CLR,0.00,VWS V14.01,2013-05-19 06:42:00,
2013-05-18 23:47:00,66.9,23.3,29.89,WSW,240,8.0,14.0,19,0.00,,CLR,0.00,VWS V14.01,2013-05-19 06:47:00,
2013-05-18 23:52:00,66.8,23.2,29.89,WNW,290,7.0,15.0,19,0.00,,CLR,0.00,VWS V14.01,2013-05-19 06:52:00,
2013-05-18 23:57:00,66.6,24.3,29.89,West,276,5.0,20.0,20,0.00,,CLR,0.00,VWS V14.01,2013-05-19 06:57:00,